Powrót do katalogu

THORAD DELTA 1 R/B

AktywnySSO
NORAD 7532·ROCKET BODY·🇺🇸 United States

Wystrzelony Nov 15, 1974 z Vandenberg Space Force Base

Loading…

Następne Przeloty (najbliższe 24 godziny)

TLE

ŚwieżeSource: Space-Track

Epoka: Sep 14, 2026, 08:08 UTC

1 07532U 74089D   26257.33890551 -.00000030  00000-0  94487-4 0  9991
2 07532 101.7070 216.4336 0066995  26.1935 131.5320 12.39930236346074

Śledź THORAD DELTA 1 R/B w czasie rzeczywistym z AllMySat

Download on the App Store